Simultaneous Nadir Overpasses (SNOs) Predictions

Prediction of SNOs between LANDSAT-8 and NOAA-19 Satellite Orbit:

Table of predicted SNOs for the next 14.0 days since TLE Epoch: 5/24/2014
Index Date (LANDSAT-8) Time (LANDSAT-8) Lat,Lon (LANDSAT-8) SZA (LANDSAT-8 ) Date (NOAA-19) Time (NOAA-19) Lat,Lon (NOAA-19) SZA (NOAA-19 ) Distance(km) Time Diff (sec)
1 05/24/2014 04:16:29 72.41, 115.80 51.58 05/24/2014 04:15:20 72.52, 113.95 51.69 63.10 69
2 05/24/2014 05:06:07 -71.88, -77.52 128.97 05/24/2014 05:06:03 -71.89, -77.51 128.96 1.07 4
3 05/24/2014 05:55:48 71.02, 88.70 50.17 05/24/2014 05:56:53 70.96, 91.40 50.11 97.88 65
4 05/26/2014 09:50:24 -71.94,-148.50 129.31 05/26/2014 09:49:56 -71.93,-148.54 129.31 1.61 28
5 05/26/2014 10:39:51 71.83, 18.97 50.58 05/26/2014 10:41:02 71.82, 18.89 50.57 2.97 71
6 05/28/2014 14:34:42 -71.98, 140.50 129.63 05/28/2014 14:33:49 -71.99, 140.41 129.62 3.37 53
7 05/28/2014 15:24:10 71.82, -52.13 50.21 05/28/2014 15:24:54 71.82, -52.05 50.21 2.83 44
8 05/30/2014 19:18:58 -72.16, 69.75 129.78 05/30/2014 19:17:46 -72.25, 68.95 129.69 28.98 72
9 05/30/2014 20:08:28 71.90,-123.07 49.95 05/30/2014 20:08:47 71.88,-123.10 49.93 2.25 19
10 06/02/2014 00:52:48 71.91, 165.86 49.66 06/02/2014 00:52:39 71.90, 165.92 49.65 2.12 9
11 06/02/2014 01:42:19 -71.75, -26.77 130.51 06/02/2014 01:43:31 -71.73, -26.49 130.53 9.95 72
12 06/04/2014 05:37:08 71.95, 94.86 49.43 06/04/2014 05:36:32 71.98, 94.82 49.46 3.22 36
13 06/04/2014 06:26:38 -71.85, -97.68 130.68 06/04/2014 06:27:25 -71.86, -97.67 130.67 0.64 47
14 06/06/2014 10:21:29 71.98, 23.82 49.22 06/06/2014 10:20:23 71.97, 23.91 49.21 3.27 66
15 06/06/2014 11:10:59 -71.88,-168.72 130.89 06/06/2014 11:11:17 -71.89,-168.67 130.88 1.58 18




NCC Satellite Simultaneous Nadir Overpasses (SNOs) Prediction Service
